Weather in Poselok im. Lenina

Russia / Kursk Oblast     51°51′58″N   37°33′06″E
temp.,
°C
wind,
m/s
gust,
m/s
humid.,
%
clouds,
%
prec.,
mm/h
press.,
hPa
HPBL,
m
3 march, wed
wed300:000nnw61198100 0.6 1013633
03:00−1nnw7139293 1.0 1015645
06:00−3nnw6149160 0.0 1016574
09:00−3nnw7138772 0.0 1019768
12:00−2nnw7118221 0.0 1020981
15:00−1nw598311 0.0 1021819
18:00−2w4109015 0.0 1020258
21:00−2w6139220 0.0 1020381
4 march, thu
thu400:00−1w6139295 0.0 1018474
03:00−3wsw6129355 0.0 1017303
06:00−3wsw613910 0.0 1015305
09:00−1wsw716864 0.0 1013470
12:00+1wsw814830 0.0 1010658
15:00+2sw716850 0.0 1008700
18:00+2wsw8178667 0.0 1005668
21:00+2wsw7159282 0.0 1004535
5 march, fri
fri500:00+2wsw71395100 0.1 1003565
03:00+1w61397100 0.3 1004764
06:00+1w6128883 0.1 1004598
09:000w599689 0.2 1006559
12:00−1nnw5695100 0.8 1008404
15:00−1nne4685100 0.8 1010538
18:00−2nne4685100 0.0 1010568
21:00−3nne3686100 0.0 1013379
6 march, sat
sat600:00−4n348867 0.0 1014173
03:00−5nnw239040 0.0 1015123
06:00−6nnw239477 0.0 1016108
09:00−6nnw238838 0.0 1017169
12:00−3wnw24760 0.0 1017621
15:00−2wnw686649 0.4 10171327
18:00−4w367573 0.1 1017536
21:00−5nnw369383 0.4 1019314
7 march, sun
sun700:00−7nw489236 0.0 1019353
03:00−7wsw388518 0.0 1019257
06:00−6sw612725 0.0 1017496
09:00−5sw9156552 0.0 1015794
12:00−2sw111761100 0.0 10121117
15:00−1wsw11186299 0.0 10091286
18:00−1wsw9177498 0.0 10061177
21:00−1wsw9167795 0.0 1005949